This demonstration page uses our WeatherBlox Daily Observations layout. Learn more.

Left ArrowRight Arrow

39.08367, -84.50855

Hourly Observations for November 17, 2015

Temp ( °F °C ) Dew Point ( °F °C ) Humidity (%) Winds ( mph kmh ) Pressure ( in mb ) Visibility ( mi km ) Precip ( " mm )
12:53 am 00:53 Mostly Cloudy 47 8.3 46 7.8 97 97 NNE 3 6 30.21 1023 10 16 0.00 0.00
1:53 am 01:53 Cloudy 47 8.3 47 8.3 100 100 Calm 30.20 1023 10 16 0.00 0.00
2:53 am 02:53 Cloudy 47 8.3 47 8.3 100 100 Calm 30.21 1023 10 16 0.00 0.00
3:53 am 03:53 Cloudy 48 8.9 46 7.8 93 93 Calm 30.19 1022 10 16 0.00 0.00
4:53 am 04:53 Clear 46 7.8 46 7.8 100 100 Calm 30.19 1022 10 16 0.00 0.00
5:53 am 05:53 Cloudy 46 7.8 45 7.2 96 96 NNE 3 6 30.18 1022 10 16 0.00 0.00
6:53 am 06:53 Partly Cloudy 47 8.3 46 7.8 97 97 Calm 30.18 1022 10 16 0.00 0.00
7:53 am 07:53 Cloudy 48 8.9 47 8.3 96 96 Calm 30.19 1022 10 16 0.00 0.00
8:53 am 08:53 Cloudy with Light Rain 50 10 47 8.3 89 89 Calm 30.19 1023 10 16 0.01 0.25
9:53 am 09:53 Cloudy with Light Rain 51 10.6 48 8.9 89 89 SSW 3 6 30.20 1023 10 16 0.01 0.25
10:53 am 10:53 Cloudy with Light Rain 53 11.7 44 6.7 72 72 SE 5 7 30.15 1021 10 16 0.00 0.03
11:53 am 11:53 Cloudy 57 13.9 44 6.7 62 62 Calm 30.13 1020 10 16 0.00 0.03
12:53 pm 12:53 Mostly Cloudy 59 15 44 6.7 58 58 E 5 7 30.08 1019 10 16 0.00 0.00
1:53 pm 13:53 Cloudy 60 15.6 45 7.2 58 58 S 6 9 30.07 1018 10 16 0.00 0.03
2:53 pm 14:53 Cloudy 60 15.6 46 7.8 60 60 S 7 11 30.07 1018 10 16 0.00 0.00
3:53 pm 15:53 Sunny 61 16.1 42 5.6 50 50 SE 7 11 30.06 1018 10 16 0.00 0.00
4:53 pm 16:53 Sunny 61 16.1 37 2.8 41 41 SE 6 9 30.05 1018 10 16 0.00 0.00
5:53 pm 17:53 Clear 59 15 35 1.7 41 41 E 6 9 30.04 1017 10 16 0.00 0.00
6:53 pm 18:53 Clear 59 15 34 1.1 39 39 SE 6 9 30.05 1018 10 16 0.00 0.00
7:53 pm 19:53 Clear 59 15 36 2.2 42 42 VRB 3 6 30.03 1017 10 16 0.00 0.00
8:53 pm 20:53 Clear 60 15.6 37 2.8 42 42 S 3 6 30.02 1017 10 16 0.00 0.00
9:53 pm 21:53 Clear 61 16.1 37 2.8 41 41 VRB 6 9 30.01 1016 10 16 0.00 0.00
10:53 pm 22:53 Clear 61 16.1 37 2.8 41 41 S 5 7 30.00 1016 10 16 0.00 0.00
11:53 pm 23:53 Clear 62 16.7 39 3.9 43 43 SSE 7 11 29.98 1015 10 16 0.00 0.00

Powered by AerisWeather